Fergus Falls, MN

1:17 PM CDT on May 28, 2017 (GMT -0500)
Fergus Falls Municipal-Mickelson

Weather History for KFFM - October, 2013

Change the Weather History Date:

Thursday, October 17, 2013

  Actual Average Record
Temperature  
Mean Temperature 38 °F -  
Max Temperature 44 °F 55 °F 76 °F (1953)
Min Temperature 30 °F 33 °F 5 °F (1998)
Degree Days  
Heating Degree Days 26    
Moisture  
Dew Point 36 °F    
Average Humidity 81    
Maximum Humidity 93    
Minimum Humidity 61    
Precipitation  
Precipitation 0.04 in - - ()
Sea Level Pressure  
Sea Level Pressure 29.88 in    
Wind  
Wind Speed 7 mph (NNW)    
Max Wind Speed 21 mph    
Max Gust Speed 31 mph    
Visibility 10 miles    
Events Rain    
Averages and records for this station are not official NWS values.
T = Trace of Precipitation, MM = Missing Value Source: NWS Daily Summary

Daily Weather History Graph

Daily Weather History Graph

Search for Another Location

Airport or City:

Trip Planner

Search our weather history database for the weather conditions in past years. The results will help you decide how hot, cold, wet, or windy it might be!

Date:

Astronomy

Oct. 17, 2013 Rise Set
Actual Time 7:44 AM CDT 6:34 PM CDT
Civil Twilight 7:14 AM CDT 7:04 PM CDT
Nautical Twilight 6:39 AM CDT 7:39 PM CDT
Astronomical Twilight 6:04 AM CDT 8:14 PM CDT
Moon 5:50 PM CDT (10/17) 6:14 AM CDT (10/17)
Length of Visible Light 11h 49m
Length of Day
10h 49m
Waxing Gibbous, 98% of the Moon is Illuminated
Oct 17
Waxing Gibbous
Oct 18
Full
Oct 26
Last Quarter
Nov 3
New
Nov 9
First Quarter

Hourly Weather History & Observations

Time (CDT) Temp. Windchill Dew Point Humidity Pressure Visibility Wind Dir Wind Speed Gust Speed Precip Events Conditions
12:13 AM 39.2 °F 35.9 °F 35.6 °F 87% 29.83 in 10.0 mi South 4.6 mph - N/A   Scattered Clouds
12:33 AM 41.0 °F 39.0 °F 35.6 °F 81% 29.83 in 10.0 mi SSE 3.5 mph - N/A   Mostly Cloudy
12:53 AM 41.0 °F 39.0 °F 35.6 °F 81% 29.83 in 10.0 mi SSE 3.5 mph - N/A   Overcast
1:13 AM 41.0 °F 39.0 °F 35.6 °F 81% 29.82 in 10.0 mi SSE 3.5 mph - N/A   Mostly Cloudy
1:33 AM 42.8 °F - 37.4 °F 81% 29.82 in 10.0 mi Calm Calm - N/A   Overcast
1:53 AM 42.8 °F 40.1 °F 37.4 °F 81% 29.82 in 10.0 mi South 4.6 mph - N/A   Overcast
2:13 AM 42.8 °F - 37.4 °F 81% 29.82 in 10.0 mi Calm Calm - N/A   Overcast
2:33 AM 42.8 °F - 37.4 °F 81% 29.82 in 10.0 mi Calm Calm - N/A   Overcast
2:53 AM 42.8 °F - 37.4 °F 81% 29.82 in 10.0 mi Calm Calm - N/A   Overcast
3:13 AM 42.8 °F - 37.4 °F 81% 29.81 in 10.0 mi Calm Calm - N/A   Overcast
3:33 AM 42.8 °F - 37.4 °F 81% 29.81 in 10.0 mi Calm Calm - N/A   Overcast
3:53 AM 42.8 °F - 37.4 °F 81% 29.81 in 10.0 mi Calm Calm - N/A   Overcast
4:13 AM 42.8 °F - 37.4 °F 81% 29.81 in 10.0 mi Calm Calm - N/A   Overcast
4:33 AM 42.8 °F - 37.4 °F 81% 29.80 in 10.0 mi Calm Calm - N/A   Overcast
4:53 AM 42.8 °F - 37.4 °F 81% 29.81 in 10.0 mi Calm Calm - N/A   Overcast
5:13 AM 42.8 °F - 39.2 °F 87% 29.81 in 10.0 mi Calm Calm - N/A   Overcast
5:33 AM 42.8 °F - 39.2 °F 87% 29.81 in 10.0 mi Calm Calm - N/A   Overcast
5:53 AM 42.8 °F - 39.2 °F 87% 29.82 in 10.0 mi Calm Calm - N/A   Overcast
6:13 AM 42.8 °F - 39.2 °F 87% 29.81 in 10.0 mi Calm Calm - N/A   Overcast
6:33 AM 42.8 °F 40.1 °F 39.2 °F 87% 29.82 in 10.0 mi NW 4.6 mph - N/A   Overcast
6:53 AM 42.8 °F 40.1 °F 39.2 °F 87% 29.81 in 10.0 mi North 4.6 mph - N/A   Light Drizzle
7:13 AM 42.8 °F 40.1 °F 39.2 °F 87% 29.82 in 10.0 mi NNW 4.6 mph - N/A   Overcast
7:33 AM 42.8 °F 41.1 °F 39.2 °F 87% 29.82 in 10.0 mi North 3.5 mph - N/A   Overcast
7:53 AM 42.8 °F 37.0 °F 41.0 °F 93% 29.82 in 10.0 mi North 10.4 mph - N/A   Overcast
8:13 AM 44.6 °F 38.8 °F 41.0 °F 87% 29.83 in 10.0 mi North 11.5 mph - N/A   Overcast
8:33 AM 44.6 °F 39.2 °F 41.0 °F 87% 29.83 in 7.0 mi North 10.4 mph 16.1 mph N/A Rain Light Rain
8:53 AM 42.8 °F 37.0 °F 41.0 °F 93% 29.84 in 10.0 mi North 10.4 mph - N/A   Overcast
9:13 AM 42.8 °F 37.5 °F 41.0 °F 93% 29.84 in 10.0 mi North 9.2 mph 18.4 mph N/A   Overcast
9:33 AM 42.8 °F 38.0 °F 41.0 °F 93% 29.85 in 10.0 mi North 8.1 mph 18.4 mph N/A   Overcast
9:53 AM 42.8 °F 37.0 °F 41.0 °F 93% 29.86 in 10.0 mi North 10.4 mph 17.3 mph N/A   Overcast
10:13 AM 44.6 °F 38.1 °F 41.0 °F 87% 29.86 in 10.0 mi North 13.8 mph 20.7 mph N/A   Overcast
10:33 AM 44.6 °F 38.1 °F 41.0 °F 87% 29.86 in 10.0 mi North 13.8 mph 19.6 mph N/A   Overcast
10:53 AM 44.6 °F 37.8 °F 41.0 °F 87% 29.87 in 10.0 mi North 15.0 mph 23.0 mph N/A   Overcast
11:13 AM 42.8 °F 34.3 °F 39.2 °F 87% 29.88 in 10.0 mi NNW 19.6 mph 26.5 mph N/A   Overcast
11:33 AM 41.0 °F 32.2 °F 37.4 °F 87% 29.88 in 10.0 mi North 18.4 mph 29.9 mph N/A Rain Light Rain
11:53 AM 39.2 °F 29.3 °F 37.4 °F 93% 29.88 in 10.0 mi North 20.7 mph 31.1 mph 0.01 in Rain Light Rain
12:13 PM 39.2 °F 29.6 °F 37.4 °F 93% 29.88 in 10.0 mi North 19.6 mph 29.9 mph 0.01 in Rain Light Rain
12:33 PM 39.2 °F 29.6 °F 35.6 °F 87% 29.89 in 10.0 mi North 19.6 mph 27.6 mph 0.02 in Rain Light Rain
12:53 PM 39.2 °F 30.2 °F 35.6 °F 87% 29.89 in 10.0 mi North 17.3 mph 25.3 mph 0.02 in Rain Light Rain
1:13 PM 39.2 °F 30.5 °F 33.8 °F 81% 29.89 in 7.0 mi North 16.1 mph 29.9 mph N/A Rain Light Rain
1:33 PM 39.2 °F 32.5 °F 35.6 °F 87% 29.90 in 10.0 mi North 10.4 mph 23.0 mph 0.01 in Rain Light Rain
1:53 PM 41.0 °F 33.1 °F 35.6 °F 81% 29.90 in 10.0 mi North 15.0 mph 20.7 mph 0.01 in   Overcast
2:13 PM 41.0 °F 33.5 °F 35.6 °F 81% 29.90 in 10.0 mi North 13.8 mph 23.0 mph N/A   Overcast
2:33 PM 42.8 °F 35.4 °F 35.6 °F 76% 29.90 in 10.0 mi NNW 15.0 mph 23.0 mph N/A   Mostly Cloudy
2:53 PM 42.8 °F 36.6 °F 35.6 °F 76% 29.89 in 10.0 mi North 11.5 mph 25.3 mph N/A   Mostly Cloudy
3:13 PM 42.8 °F 35.8 °F 35.6 °F 76% 29.89 in 10.0 mi NNW 13.8 mph - N/A   Mostly Cloudy
3:33 PM 42.8 °F 34.8 °F 35.6 °F 76% 29.90 in 10.0 mi NNW 17.3 mph 21.9 mph N/A   Mostly Cloudy
3:53 PM 42.8 °F 36.2 °F 35.6 °F 76% 29.90 in 10.0 mi NNW 12.7 mph 23.0 mph N/A   Scattered Clouds
4:13 PM 42.8 °F 35.4 °F 35.6 °F 76% 29.91 in 10.0 mi NNW 15.0 mph 24.2 mph N/A   Light Drizzle
4:33 PM 42.8 °F 37.0 °F 35.6 °F 76% 29.91 in 10.0 mi North 10.4 mph 19.6 mph N/A   Mostly Cloudy
4:53 PM 42.8 °F 37.0 °F 35.6 °F 76% 29.91 in 10.0 mi NNW 10.4 mph - N/A   Mostly Cloudy
5:13 PM 42.8 °F 36.6 °F 35.6 °F 76% 29.91 in 10.0 mi NNW 11.5 mph 16.1 mph N/A   Scattered Clouds
5:33 PM 42.8 °F 36.2 °F 35.6 °F 76% 29.91 in 10.0 mi NNW 12.7 mph - N/A   Mostly Cloudy
5:53 PM 42.8 °F 35.8 °F 35.6 °F 76% 29.92 in 10.0 mi NNW 13.8 mph 19.6 mph N/A   Overcast
6:13 PM 42.8 °F 36.6 °F 33.8 °F 70% 29.93 in 10.0 mi NNW 11.5 mph - N/A   Overcast
6:33 PM 42.8 °F 37.0 °F 35.6 °F 76% 29.93 in 10.0 mi NNW 10.4 mph - N/A   Overcast
6:53 PM 42.8 °F 37.0 °F 33.8 °F 70% 29.94 in 10.0 mi NNW 10.4 mph - N/A   Overcast
7:13 PM 42.8 °F 36.6 °F 32.0 °F 66% 29.94 in 10.0 mi NNW 11.5 mph 19.6 mph N/A   Overcast
7:33 PM 42.8 °F 36.2 °F 30.2 °F 61% 29.94 in 10.0 mi NNW 12.7 mph 17.3 mph N/A   Overcast
7:53 PM 42.8 °F 36.2 °F 30.2 °F 61% 29.94 in 10.0 mi NNW 12.7 mph - N/A   Overcast
8:13 PM 41.0 °F 34.7 °F 30.2 °F 65% 29.95 in 10.0 mi NNW 10.4 mph - N/A   Overcast
8:33 PM 41.0 °F 35.2 °F 30.2 °F 65% 29.95 in 10.0 mi NNW 9.2 mph - N/A   Overcast
8:53 PM 39.2 °F 33.6 °F 30.2 °F 70% 29.95 in 10.0 mi NNW 8.1 mph - N/A   Overcast
9:13 PM 39.2 °F 33.6 °F 32.0 °F 75% 29.95 in 10.0 mi NNW 8.1 mph - N/A   Overcast
9:33 PM 37.4 °F 32.1 °F 30.2 °F 75% 29.96 in 10.0 mi NNW 6.9 mph - N/A   Mostly Cloudy
9:53 PM 37.4 °F 32.1 °F 30.2 °F 75% 29.96 in 10.0 mi NNW 6.9 mph - N/A   Scattered Clouds
10:13 PM 35.6 °F 29.2 °F 30.2 °F 81% 29.96 in 10.0 mi NW 8.1 mph - N/A   Scattered Clouds
10:33 PM 33.8 °F 27.7 °F 30.2 °F 87% 29.97 in 10.0 mi NW 6.9 mph - N/A   Clear
10:53 PM 33.8 °F 28.6 °F 28.4 °F 81% 29.97 in 10.0 mi WNW 5.8 mph - N/A   Clear
11:13 PM 33.8 °F 28.6 °F 28.4 °F 81% 29.97 in 10.0 mi NW 5.8 mph - N/A   Clear
11:33 PM 33.8 °F 28.6 °F 28.4 °F 81% 29.97 in 10.0 mi NW 5.8 mph - N/A   Scattered Clouds
11:53 PM 30.2 °F 24.3 °F 28.4 °F 93% 29.97 in 10.0 mi WNW 5.8 mph - N/A   Clear